Location: Quedlinburg
(51.7921°N, 11.1414°E)
Time: 22:18:33
(UTC+02:00)

SEEDS - Pass Details

Date: 20 March 2026
Orbit: 470 x 477 km, 97.8° (Epoch: 21 April)

Event Time Altitude Azimuth Distance (km) Brightness Sun altitude
Rises 04:33:57 0° 31° (NNE) 2,555 ? -16.6°
Reaches altitude 10° 04:36:58 10° 59° (ENE) 1,665 ? -16.2°
Maximum altitude 04:38:46 13° 89° (E) 1,461 ? -15.9°
Drops below altitude 10° 04:40:35 10° 120° (ESE) 1,654 ? -15.7°
Sets 04:43:32 0° 148° (SSE) 2,522 ? -15.2°
